,,PressureMeas_1m,,PRMeasQMR101_1,,RHStat155_1m_1,,SRMeasQMS101R_1m,,TAStat155_1m_1,,GenWind_1,,GenWind_1,
2017-08-06, 07:00:07,VALID,918.261,VALID,0.0,VALID,98.502,VALID,21.99,VALID,18.879,VALID,36.0,VALID,0.0,
2017-08-06, 07:01:07,VALID,918.291,VALID,0.0,VALID,98.508,VALID,19.28,VALID,18.888,VALID,32.0,VALID,0.001,
2017-08-06, 07:02:07,VALID,918.318,VALID,0.0,VALID,98.479,VALID,17.133,VALID,18.894,VALID,318.0,VALID,0.086,
2017-08-06, 07:03:07,VALID,918.361,VALID,0.0,VALID,98.426,VALID,16.514,VALID,18.859,VALID,256.0,VALID,0.338,
2017-08-06, 07:04:07,VALID,918.376,VALID,0.0,VALID,98.471,VALID,18.468,VALID,18.871,VALID,240.0,VALID,0.3,
2017-08-06, 07:05:07,VALID,918.368,VALID,0.0,VALID,98.43,VALID,27.636,VALID,18.847,VALID,243.0,VALID,0.222,
2017-08-06, 07:06:07,VALID,918.328,VALID,0.2,VALID,98.484,VALID,40.992,VALID,18.878,VALID,211.0,VALID,0.011,
2017-08-06, 07:07:07,VALID,918.309,VALID,0.0,VALID,98.458,VALID,49.607,VALID,18.843,VALID,101.0,VALID,0.341,
2017-08-06, 07:08:07,VALID,918.312,VALID,0.0,VALID,98.412,VALID,52.56,VALID,18.809,VALID,98.0,VALID,0.073,
2017-08-06, 07:09:07,VALID,918.314,VALID,0.2,VALID,98.418,VALID,58.349,VALID,18.809,VALID,82.0,VALID,0.222,
2017-08-06, 07:10:07,VALID,918.301,VALID,0.0,VALID,98.398,VALID,63.32,VALID,18.822,VALID,38.0,VALID,0.26,
2017-08-06, 07:11:07,VALID,918.296,VALID,0.0,VALID,98.386,VALID,68.487,VALID,18.802,VALID,25.0,VALID,0.245,
2017-08-06, 07:12:07,VALID,918.256,VALID,0.0,VALID,98.449,VALID,72.253,VALID,18.874,VALID,24.0,VALID,0.199,
2017-08-06, 07:13:07,VALID,918.236,VALID,0.0,VALID,98.473,VALID,73.078,VALID,18.922,VALID,12.0,VALID,0.874,
2017-08-06, 07:14:06,VALID,918.203,VALID,0.0,VALID,98.404,VALID,73.675,VALID,18.888,VALID,45.0,VALID,0.651,
2017-08-06, 07:15:06,VALID,918.177,VALID,0.0,VALID,98.438,VALID,74.03,VALID,18.933,VALID,27.0,VALID,0.761,
2017-08-06, 07:16:06,VALID,918.167,VALID,0.0,VALID,98.459,VALID,74.471,VALID,18.964,VALID,25.0,VALID,0.903,
2017-08-06, 07:17:06,VALID,918.178,VALID,0.0,VALID,98.372,VALID,75.963,VALID,18.917,VALID,30.0,VALID,1.197,
2017-08-06, 07:18:06,VALID,918.172,VALID,0.0,VALID,98.325,VALID,80.03,VALID,18.889,VALID,23.0,VALID,1.384,
2017-08-06, 07:19:06,VALID,918.22,VALID,0.0,VALID,98.378,VALID,80.534,VALID,18.928,VALID,2.0,VALID,1.537,
2017-08-06, 07:20:06,VALID,918.256,VALID,0.0,VALID,98.277,VALID,79.591,VALID,18.85,VALID,359.0,VALID,1.218,
2017-08-06, 07:21:06,VALID,918.282,VALID,0.0,VALID,98.31,VALID,81.857,VALID,18.85,VALID,8.0,VALID,0.996,
2017-08-06, 07:22:06,VALID,918.305,VALID,0.0,VALID,98.355,VALID,75.98,VALID,18.893,VALID,11.0,VALID,0.996,
2017-08-06, 07:23:06,VALID,918.324,VALID,0.0,VALID,98.272,VALID,64.538,VALID,18.84,VALID,11.0,VALID,1.411,
2017-08-06, 07:24:06,VALID,918.336,VALID,0.0,VALID,98.298,VALID,58.278,VALID,18.846,VALID,22.0,VALID,1.311,
2017-08-06, 07:25:06,VALID,918.338,VALID,0.0,VALID,98.388,VALID,54.454,VALID,18.897,VALID,19.0,VALID,1.199,
2017-08-06, 07:26:06,VALID,918.377,VALID,0.0,VALID,98.407,VALID,52.62,VALID,18.928,VALID,360.0,VALID,1.039,
2017-08-06, 07:27:06,VALID,918.417,VALID,0.0,VALID,98.449,VALID,51.518,VALID,18.961,VALID,355.0,VALID,0.678,
2017-08-06, 07:28:06,VALID,918.451,VALID,0.0,VALID,98.399,VALID,48.597,VALID,18.943,VALID,352.0,VALID,0.916,
2017-08-06, 07:29:06,VALID,918.479,VALID,0.0,VALID,98.311,VALID,45.94,VALID,18.86,VALID,360.0,VALID,1.335,
2017-08-06, 07:30:06,VALID,918.495,VALID,0.0,VALID,98.304,VALID,39.546,VALID,18.851,VALID,8.0,VALID,0.958,
2017-08-06, 07:31:06,VALID,918.521,VALID,0.0,VALID,98.463,VALID,38.387,VALID,18.975,VALID,347.0,VALID,0.938,
2017-08-06, 07:32:06,VALID,918.526,VALID,0.0,VALID,98.429,VALID,54.481,VALID,18.97,VALID,6.0,VALID,1.102,
2017-08-06, 07:33:06,VALID,918.501,VALID,0.0,VALID,98.329,VALID,72.592,VALID,18.884,VALID,359.0,VALID,1.223,
2017-08-06, 07:34:06,VALID,918.483,VALID,0.0,VALID,98.246,VALID,83.939,VALID,18.817,VALID,355.0,VALID,0.824,
2017-08-06, 07:35:06,VALID,918.461,VALID,0.0,VALID,98.221,VALID,96.399,VALID,18.802,VALID,17.0,VALID,1.121,
2017-08-06, 07:36:06,VALID,918.49,VALID,0.0,VALID,98.293,VALID,96.26,VALID,18.856,VALID,37.0,VALID,1.125,
2017-08-06, 07:37:06,VALID,918.509,VALID,0.0,VALID,98.33,VALID,87.424,VALID,18.889,VALID,46.0,VALID,0.854,
2017-08-06, 07:38:06,VALID,918.547,VALID,0.0,VALID,98.401,VALID,81.154,VALID,18.959,VALID,1.0,VALID,0.568,
2017-08-06, 07:39:06,VALID,918.578,VALID,0.0,VALID,98.368,VALID,75.907,VALID,18.959,VALID,351.0,VALID,0.628,
2017-08-06, 07:40:06,VALID,918.597,VALID,0.0,VALID,98.42,VALID,64.665,VALID,18.995,VALID,16.0,VALID,0.654,
2017-08-06, 07:41:06,VALID,918.613,VALID,0.0,VALID,98.438,VALID,55.465,VALID,19.058,VALID,22.0,VALID,0.764,
2017-08-06, 07:42:06,VALID,918.644,VALID,0.0,VALID,98.419,VALID,49.435,VALID,19.059,VALID,357.0,VALID,0.852,
2017-08-06, 07:43:06,VALID,918.66,VALID,0.0,VALID,98.329,VALID,44.963,VALID,19.009,VALID,357.0,VALID,0.732,
2017-08-06, 07:44:06,VALID,918.679,VALID,0.0,VALID,98.268,VALID,42.515,VALID,18.95,VALID,13.0,VALID,1.146,
2017-08-06, 07:45:06,VALID,918.707,VALID,0.0,VALID,98.161,VALID,42.736,VALID,18.896,VALID,7.0,VALID,1.252,
2017-08-06, 07:46:06,VALID,918.737,VALID,0.0,VALID,98.062,VALID,43.406,VALID,18.83,VALID,347.0,VALID,0.609,
2017-08-06, 07:47:06,VALID,918.76,VALID,0.0,VALID,98.114,VALID,43.547,VALID,18.869,VALID,330.0,VALID,0.729,
2017-08-06, 07:48:06,VALID,918.786,VALID,0.0,VALID,98.128,VALID,45.151,VALID,18.883,VALID,356.0,VALID,0.923,
2017-08-06, 07:49:06,VALID,918.775,VALID,0.0,VALID,98.137,VALID,47.873,VALID,18.874,VALID,11.0,VALID,1.312,
2017-08-06, 07:50:06,VALID,918.804,VALID,0.0,VALID,98.117,VALID,53.546,VALID,18.879,VALID,3.0,VALID,0.659,
2017-08-06, 07:51:06,VALID,918.809,VALID,0.0,VALID,98.256,VALID,65.235,VALID,18.951,VALID,358.0,VALID,0.877,
2017-08-06, 07:52:06,VALID,918.802,VALID,0.0,VALID,98.216,VALID,84.198,VALID,18.953,VALID,5.0,VALID,1.123,
2017-08-06, 07:53:06,VALID,918.784,VALID,0.0,VALID,98.168,VALID,96.594,VALID,18.927,VALID,354.0,VALID,0.594,
2017-08-06, 07:54:06,VALID,918.785,VALID,0.0,VALID,98.084,VALID,92.594,VALID,18.88,VALID,13.0,VALID,0.338,
2017-08-06, 07:55:06,VALID,918.793,VALID,0.0,VALID,98.064,VALID,85.532,VALID,18.87,VALID,304.0,VALID,0.427,
2017-08-06, 07:56:06,VALID,918.795,VALID,0.0,VALID,98.027,VALID,77.067,VALID,18.87,VALID,310.0,VALID,0.025,
2017-08-06, 07:57:06,VALID,918.817,VALID,0.0,VALID,98.136,VALID,76.854,VALID,18.93,VALID,311.0,VALID,0.298,
2017-08-06, 07:58:06,VALID,918.84,VALID,0.0,VALID,98.192,VALID,75.442,VALID,18.979,VALID,331.0,VALID,0.248,
2017-08-06, 07:59:06,VALID,918.853,VALID,0.0,VALID,98.269,VALID,74.58,VALID,19.066,VALID,327.0,VALID,0.051,
2017-08-06, 08:00:06,VALID,918.851,VALID,0.0,VALID,98.325,VALID,78.051,VALID,19.144,VALID,256.0,VALID,0.005,
2017-08-06, 08:01:06,VALID,918.852,VALID,0.0,VALID,98.33,VALID,93.756,VALID,19.176,VALID,360.0,VALID,0.618,
2017-08-06, 08:02:06,VALID,918.842,VALID,0.0,VALID,98.318,VALID,107.559,VALID,19.205,VALID,27.0,VALID,0.733,
2017-08-06, 08:03:06,VALID,918.845,VALID,0.0,VALID,98.45,VALID,106.351,VALID,19.315,VALID,32.0,VALID,0.804,
2017-08-06, 08:04:06,VALID,918.866,VALID,0.0,VALID,98.333,VALID,99.719,VALID,19.264,VALID,360.0,VALID,1.027,
2017-08-06, 08:05:06,VALID,918.851,VALID,0.0,VALID,98.245,VALID,99.684,VALID,19.214,VALID,4.0,VALID,1.101,
2017-08-06, 08:06:06,VALID,918.809,VALID,0.0,VALID,98.093,VALID,110.955,VALID,19.149,VALID,27.0,VALID,1.657,
2017-08-06, 08:07:06,VALID,918.831,VALID,0.0,VALID,98.124,VALID,126.287,VALID,19.192,VALID,7.0,VALID,1.267,
2017-08-06, 08:08:06,VALID,918.846,VALID,0.0,VALID,97.976,VALID,146.259,VALID,19.188,VALID,353.0,VALID,1.446,
2017-08-06, 08:09:06,VALID,918.877,VALID,0.0,VALID,97.784,VALID,161.732,VALID,19.143,VALID,27.0,VALID,1.425,
2017-08-06, 08:10:06,VALID,918.921,VALID,0.0,VALID,97.823,VALID,158.236,VALID,19.186,VALID,20.0,VALID,0.951,
2017-08-06, 08:11:06,VALID,918.926,VALID,0.0,VALID,97.766,VALID,140.104,VALID,19.203,VALID,348.0,VALID,1.475,
2017-08-06, 08:12:06,VALID,918.976,VALID,0.0,VALID,97.405,VALID,141.13,VALID,19.198,VALID,331.0,VALID,0.895,
2017-08-06, 08:13:06,VALID,918.987,VALID,0.0,VALID,97.532,VALID,133.986,VALID,19.298,VALID,1.0,VALID,0.598,
2017-08-06, 08:14:06,VALID,919.006,VALID,0.0,VALID,97.798,VALID,114.157,VALID,19.414,VALID,9.0,VALID,1.359,
2017-08-06, 08:15:06,VALID,919.019,VALID,0.0,VALID,97.763,VALID,113.637,VALID,19.421,VALID,323.0,VALID,0.42,
2017-08-06, 08:16:06,VALID,919.012,VALID,0.0,VALID,97.857,VALID,114.047,VALID,19.463,VALID,333.0,VALID,0.377,
2017-08-06, 08:17:06,VALID,918.974,VALID,0.0,VALID,97.401,VALID,135.621,VALID,19.327,VALID,5.0,VALID,1.116,
